FW3788 Weather Reports


Display with metric or nautical units.
time (UTC)temp
F
wind
direction
speed
MPH
gust
MPH
rain 1hr
in
rain 24hr
in
rain mn
in
humidity
%
barometer
mb
20260510032518 67 310 0.0 0.0 0.00 0.00 0.00 43 1010.8
20260510032019 68 310 0.0 0.0 0.00 0.00 0.00 43 1010.6
20260510031527 69 310 0.0 4.0 0.00 0.00 0.00 42 1010.6
20260510031020 69 310 0.0 4.0 0.00 0.00 0.00 42 1010.5
20260510030519 70 320 0.0 4.0 0.00 0.00 0.00 41 1010.4
20260510030019 70 318 0.0 6.0 0.00 0.00 0.00 40 1010.5
20260510025519 70 328 2.0 8.0 0.00 0.00 0.00 39 1010.4
20260510025019 71 330 3.0 8.0 0.00 0.00 0.00 38 1010.3
20260510024522 71 339 4.0 10.0 0.00 0.00 0.00 38 1010.3
20260510024018 72 327 5.0 10.0 0.00 0.00 0.00 36 1010.2
20260510023519 72 314 5.0 9.0 0.00 0.00 0.00 35 1010.1
20260510023019 73 318 4.0 9.0 0.00 0.00 0.00 33 1010.1
20260510022523 73 332 4.0 9.0 0.00 0.00 0.00 32 1010.1
20260510022019 74 326 0.0 8.0 0.00 0.00 0.00 31 1010.1
20260510021530 74 311 1.0 9.0 0.00 0.00 0.00 31 1010.1
20260510021019 74 349 4.0 9.0 0.00 0.00 0.00 31 1010.0
20260510020519 75 322 2.0 7.0 0.00 0.00 0.00 31 1010.0
20260510020025 75 318 1.0 7.0 0.00 0.00 0.00 32 1010.1
20260510015519 75 296 2.0 7.0 0.00 0.00 0.00 31 1010.0
20260510015019 76 325 1.0 10.0 0.00 0.00 0.00 30 1009.9
20260510014520 76 295 3.0 10.0 0.00 0.00 0.00 30 1009.9
20260510014020 76 336 1.0 9.0 0.00 0.00 0.00 30 1009.9
20260510013520 76 341 3.0 9.0 0.00 0.00 0.00 28 1009.9
20260510013018 77 331 1.0 10.0 0.00 0.00 0.00 28 1009.9
20260510012519 77 327 2.0 10.0 0.00 0.00 0.00 29 1009.9
20260510012019 77 320 3.0 9.0 0.00 0.00 0.00 28 1009.9
20260510011520 78 313 3.0 9.0 0.00 0.00 0.00 29 1009.9
20260510011019 78 347 4.0 9.0 0.00 0.00 0.00 28 1009.9
20260510010519 78 308 2.0 10.0 0.00 0.00 0.00 28 1009.8
20260510010019 79 338 3.0 12.0 0.00 0.00 0.00 28 1009.8
20260510005519 79 350 6.0 12.0 0.00 0.00 0.00 28 1009.8
20260510005020 79 318 5.0 11.0 0.00 0.00 0.00 28 1009.8
20260510004519 79 298 4.0 11.0 0.00 0.00 0.00 28 1009.8
20260510004019 79 340 4.0 11.0 0.00 0.00 0.00 27 1009.9
20260510003522 79 308 5.0 12.0 0.00 0.00 0.00 27 1009.8
20260510003020 80 290 3.0 12.0 0.00 0.00 0.00 28 1009.8
20260510002519 80 324 4.0 11.0 0.00 0.00 0.00 27 1009.7
20260510002019 81 312 1.0 10.0 0.00 0.00 0.00 27 1009.8
20260510001530 81 283 1.0 10.0 0.00 0.00 0.00 27 1009.7
20260510001019 81 270 3.0 10.0 0.00 0.00 0.00 27 1009.8
20260510000519 82 284 1.0 10.0 0.00 0.00 0.00 27 1009.8
20260510000019 81 325 3.0 10.0 0.00 0.00 0.00 27 1009.8
20260509235519 81 301 2.0 10.0 0.00 0.00 0.00 26 1009.8
20260509235025 82 290 3.0 10.0 0.00 0.00 0.00 26 1009.9
20260509234519 82 278 1.0 10.0 0.00 0.00 0.00 27 1009.8
20260509234120 82 333 1.0 10.0 0.00 0.00 0.00 27 1009.9
20260509233519 82 291 4.0 11.0 0.00 0.00 0.00 27 1009.8
20260509233020 82 277 3.0 13.0 0.00 0.00 0.00 27 1009.8
20260509232519 82 290 1.0 13.0 0.00 0.00 0.00 26 1009.8
20260509232019 82 302 1.0 11.0 0.00 0.00 0.00 26 1009.8
20260509231518 83 268 2.0 10.0 0.00 0.00 0.00 26 1009.9
20260509231018 84 308 3.0 10.0 0.00 0.00 0.00 26 1009.9
20260509230518 84 279 1.0 7.0 0.00 0.00 0.00 26 1009.9
20260509230020 83 291 0.0 10.0 0.00 0.00 0.00 26 1009.9
20260509225519 83 305 3.0 10.0 0.00 0.00 0.00 26 1009.9
20260509225021 83 314 0.0 11.0 0.00 0.00 0.00 26 1009.9
20260509224518 83 32 1.0 11.0 0.00 0.00 0.00 26 1010.0
20260509224019 82 316 0.0 10.0 0.00 0.00 0.00 28 1010.1
20260509223519 81 59 0.0 11.0 0.00 0.00 0.00 28 1010.2
20260509223019 81 313 4.0 11.0 0.00 0.00 0.00 27 1010.3
20260509222519 82 334 5.0 12.0 0.00 0.00 0.00 28 1010.4
20260509222022 82 298 5.0 12.0 0.00 0.00 0.00 27 1010.5
20260509221520 83 13 3.0 12.0 0.00 0.00 0.00 27 1010.5
20260509221019 83 332 0.0 7.0 0.00 0.00 0.00 28 1010.5
20260509220518 82 28 2.0 8.0 0.00 0.00 0.00 27 1010.5
20260509220022 82 341 0.0 10.0 0.00 0.00 0.00 27 1010.6
20260509215519 82 316 6.0 10.0 0.00 0.00 0.00 28 1010.6
20260509215021 82 48 1.0 10.0 0.00 0.00 0.00 28 1010.7
20260509214530 82 292 3.0 10.0 0.00 0.00 0.00 28 1010.8
20260509214118 82 319 5.0 10.0 0.00 0.00 0.00 27 1010.8
20260509213522 82 310 2.0 10.0 0.00 0.00 0.00 28 1011.0
20260509213020 82 295 4.0 10.0 0.00 0.00 0.00 28 1011.1
20260509212518 82 290 2.0 9.0 0.00 0.00 0.00 27 1011.0
20260509212019 82 287 1.0 11.0 0.00 0.00 0.00 28 1011.1
20260509211522 82 320 0.0 11.0 0.00 0.00 0.00 27 1011.2
20260509211019 82 338 5.0 10.0 0.00 0.00 0.00 27 1011.1
20260509210520 82 311 4.0 10.0 0.00 0.00 0.00 25 1011.3
20260509210019 82 34 0.0 11.0 0.00 0.00 0.00 26 1011.2
20260509205519 82 47 2.0 11.0 0.00 0.00 0.00 25 1011.3
20260509205019 82 324 1.0 8.0 0.00 0.00 0.00 22 1011.3
20260509204528 82 330 2.0 8.0 0.00 0.00 0.00 25 1011.3
20260509204019 82 18 0.0 6.0 0.00 0.00 0.00 22 1011.3
20260509203519 82 323 2.0 10.0 0.00 0.00 0.00 22 1011.3
20260509203019 81 334 3.0 10.0 0.00 0.00 0.00 22 1011.4
20260509202518 81 293 0.0 10.0 0.00 0.00 0.00 23 1011.5
20260509202019 82 302 1.0 8.0 0.00 0.00 0.00 23 1011.5
20260509201518 83 303 2.0 6.0 0.00 0.00 0.00 21 1011.6
20260509201019 83 138 0.0 3.0 0.00 0.00 0.00 20 1011.6
20260509200518 82 266 0.0 7.0 0.00 0.00 0.00 20 1011.7
20260509200019 81 291 2.0 9.0 0.00 0.00 0.00 21 1011.7
20260509195520 81 52 2.0 9.0 0.00 0.00 0.00 23 1011.8
20260509195021 80 297 2.0 9.0 0.00 0.00 0.00 23 1011.9
20260509194518 80 345 1.0 11.0 0.00 0.00 0.00 22 1011.9
20260509194019 80 8 5.0 11.0 0.00 0.00 0.00 20 1011.9
20260509193519 80 326 1.0 11.0 0.00 0.00 0.00 20 1011.9
20260509193030 80 319 3.0 11.0 0.00 0.00 0.00 21 1012.0
20260509192519 81 323 2.0 9.0 0.00 0.00 0.00 21 1012.0
20260509192022 80 343 1.0 5.0 0.00 0.00 0.00 18 1012.1
20260509191519 80 29 0.0 7.0 0.00 0.00 0.00 14 1012.2
20260509191021 80 343 0.0 8.0 0.00 0.00 0.00 15 1012.2
20260509190523 80 56 0.0 8.0 0.00 0.00 0.00 14 1012.2
20260509190019 80 330 1.0 8.0 0.00 0.00 0.00 14 1012.2
20260509185519 80 23 4.0 8.0 0.00 0.00 0.00 17 1012.3
20260509185023 80 313 3.0 8.0 0.00 0.00 0.00 16 1012.3
20260509184520 80 79 1.0 8.0 0.00 0.00 0.00 14 1012.3
20260509184019 80 317 1.0 5.0 0.00 0.00 0.00 15 1012.4
20260509183519 79 56 0.0 6.0 0.00 0.00 0.00 15 1012.4
20260509183019 79 337 2.0 8.0 0.00 0.00 0.00 16 1012.3
20260509182520 79 30 1.0 8.0 0.00 0.00 0.00 16 1012.4
20260509182018 80 4 2.0 7.0 0.00 0.00 0.00 18 1012.4
20260509181519 79 232 0.0 4.0 0.00 0.00 0.00 21 1012.4
20260509181020 78 285 0.0 4.0 0.00 0.00 0.00 21 1012.5
20260509180520 78 350 1.0 7.0 0.00 0.00 0.00 21 1012.5
20260509180019 78 323 1.0 7.0 0.00 0.00 0.00 21 1012.6
20260509175519 77 322 0.0 6.0 0.00 0.00 0.00 21 1012.5
20260509175021 77 318 0.0 5.0 0.00 0.00 0.00 21 1012.5
20260509174519 77 311 1.0 8.0 0.00 0.00 0.00 20 1012.6
20260509174019 77 349 2.0 8.0 0.00 0.00 0.00 21 1012.7
20260509173518 77 349 0.0 6.0 0.00 0.00 0.00 20 1012.6
20260509173019 77 20 2.0 6.0 0.00 0.00 0.00 21 1012.6
20260509172520 77 335 1.0 7.0 0.00 0.00 0.00 20 1012.7
20260509172120 77 341 0.0 7.0 0.00 0.00 0.00 22 1012.7
20260509171519 77 256 0.0 6.0 0.00 0.00 0.00 22 1012.6
20260509171018 77 347 2.0 6.0 0.00 0.00 0.00 21 1012.6
20260509170519 77 330 0.0 5.0 0.00 0.00 0.00 22 1012.6
20260509170019 77 330 1.0 5.0 0.00 0.00 0.00 19 1012.6
20260509165519 76 308 0.0 4.0 0.00 0.00 0.00 21 1012.7
20260509165023 76 305 1.0 4.0 0.00 0.00 0.00 21 1012.6
20260509164520 76 323 0.0 0.0 0.00 0.00 0.00 22 1012.7
20260509164019 75 322 0.0 5.0 0.00 0.00 0.00 21 1012.8
20260509163519 74 323 2.0 5.0 0.00 0.00 0.00 22 1012.8
20260509163021 74 320 1.0 4.0 0.00 0.00 0.00 22 1012.8
20260509162520 74 110 0.0 0.0 0.00 0.00 0.00 25 1012.8
20260509162020 74 114 0.0 0.0 0.00 0.00 0.00 25 1012.8
20260509161520 73 114 0.0 0.0 0.00 0.00 0.00 27 1012.8
20260509161019 72 114 0.0 0.0 0.00 0.00 0.00 26 1013.0
20260509160519 72 114 0.0 0.0 0.00 0.00 0.00 27 1012.9
20260509160023 71 114 0.0 0.0 0.00 0.00 0.00 28 1013.0
20260509155519 71 114 0.0 0.0 0.00 0.00 0.00 27 1013.0
20260509155019 70 114 0.0 0.0 0.00 0.00 0.00 27 1013.1
20260509154521 70 114 0.0 0.0 0.00 0.00 0.00 34 1013.0
20260509154019 69 114 0.0 0.0 0.00 0.00 0.00 36 1013.2
20260509153521 68 114 0.0 0.0 0.00 0.00 0.00 36 1013.1
20260509153026 67 114 0.0 0.0 0.00 0.00 0.00 34 1013.2
20260509152520 66 114 0.0 0.0 0.00 0.00 0.00 39 1013.1
20260509152020 65 114 0.0 0.0 0.00 0.00 0.00 39 1013.2
20260509151518 64 114 0.0 0.0 0.00 0.00 0.00 41 1013.2
20260509151018 63 114 0.0 0.0 0.00 0.00 0.00 37 1013.2
20260509150518 62 114 0.0 0.0 0.00 0.00 0.00 45 1013.2
20260509150020 61 114 0.0 0.0 0.00 0.00 0.00 47 1013.2
20260509145519 60 114 0.0 0.0 0.00 0.00 0.00 47 1013.2
20260509145019 59 114 0.0 0.0 0.00 0.00 0.00 45 1013.2
20260509144518 58 114 0.0 0.0 0.00 0.00 0.00 48 1013.2
20260509144018 56 114 0.0 0.0 0.00 0.00 0.00 50 1013.2
20260509143519 54 114 0.0 0.0 0.00 0.00 0.00 52 1013.3
20260509142518 51 187 0.0 0.0 0.00 0.00 0.00 54 1013.3
20260509142120 51 187 0.0 0.0 0.00 0.00 0.00 54 1013.2
20260509141518 52 187 0.0 0.0 0.00 0.00 0.00 52 1013.3
20260509141019 51 187 0.0 0.0 0.00 0.00 0.00 52 1013.2
20260509140518 51 187 0.0 0.0 0.00 0.00 0.00 53 1013.2
20260509140019 50 187 0.0 0.0 0.00 0.00 0.00 54 1013.2
20260509135521 48 187 0.0 0.0 0.00 0.00 0.00 56 1013.2
20260509135019 47 187 0.0 0.0 0.00 0.00 0.00 57 1013.2
20260509134518 48 187 0.0 0.0 0.00 0.00 0.00 55 1013.1
20260509134018 48 187 0.0 0.0 0.00 0.00 0.00 56 1013.0
20260509133518 48 187 0.0 0.0 0.00 0.00 0.00 56 1013.0
20260509133018 47 187 0.0 0.0 0.00 0.00 0.00 55 1012.9
20260509132519 47 187 0.0 0.0 0.00 0.00 0.00 55 1012.9
20260509132019 47 187 0.0 0.0 0.00 0.00 0.00 55 1012.8
20260509131530 47 187 0.0 0.0 0.00 0.00 0.00 55 1012.8
20260509131018 47 187 0.0 0.0 0.00 0.00 0.00 54 1012.8
20260509130518 48 187 0.0 0.0 0.00 0.00 0.00 52 1012.7
20260509130026 48 187 0.0 0.0 0.00 0.00 0.00 52 1012.7
20260509125518 49 187 0.0 0.0 0.00 0.00 0.00 54 1012.7
20260509125018 47 197 0.0 0.0 0.00 0.00 0.00 56 1012.7
20260509124522 47 223 0.0 0.0 0.00 0.00 0.00 53 1012.8
20260509124018 47 223 0.0 0.0 0.00 0.00 0.00 55 1012.8
20260509123519 48 223 0.0 0.0 0.00 0.00 0.00 55 1012.7
20260509123119 48 223 0.0 0.0 0.00 0.00 0.00 54 1012.7
20260509122518 48 223 0.0 0.0 0.00 0.00 0.00 54 1012.8
20260509122018 48 223 0.0 0.0 0.00 0.00 0.00 55 1012.8
20260509121519 47 226 0.0 0.0 0.00 0.00 0.00 55 1012.7
20260509121024 47 226 0.0 0.0 0.00 0.00 0.00 53 1012.7
20260509120518 46 226 0.0 0.0 0.00 0.00 0.00 52 1012.9
20260509120018 46 227 0.0 0.0 0.00 0.00 0.00 54 1012.9
20260509115518 47 227 0.0 0.0 0.00 0.00 0.00 54 1012.9
20260509115018 47 227 0.0 0.0 0.00 0.00 0.00 53 1012.9
20260509114518 47 227 0.0 0.0 0.00 0.00 0.00 50 1012.9
20260509114018 47 227 0.0 0.0 0.00 0.00 0.00 50 1013.0
20260509113520 46 227 0.0 0.0 0.00 0.00 0.00 51 1012.9
20260509113018 46 227 0.0 0.0 0.00 0.00 0.00 48 1013.0
20260509112518 46 227 0.0 0.0 0.00 0.00 0.00 48 1012.9
20260509112018 46 228 0.0 0.0 0.00 0.00 0.00 51 1012.9
20260509111519 47 228 0.0 0.0 0.00 0.00 0.00 51 1012.9
20260509111019 47 228 0.0 0.0 0.00 0.00 0.00 51 1012.9
20260509110519 47 228 0.0 0.0 0.00 0.00 0.00 50 1012.9
20260509110019 47 237 0.0 0.0 0.00 0.00 0.00 47 1013.0
20260509105519 47 237 0.0 0.0 0.00 0.00 0.00 47 1012.9
20260509105019 47 237 0.0 0.0 0.00 0.00 0.00 45 1012.9
20260509104519 46 237 0.0 0.0 0.00 0.00 0.00 48 1013.0
20260509104019 46 237 0.0 0.0 0.00 0.00 0.00 45 1013.0
20260509103519 46 237 0.0 0.0 0.00 0.00 0.00 44 1013.1
20260509103019 46 237 0.0 0.0 0.00 0.00 0.00 44 1013.1
20260509102518 46 237 0.0 0.0 0.00 0.00 0.00 46 1013.2
20260509102019 46 237 0.0 0.0 0.00 0.00 0.00 48 1013.2
20260509101618 46 237 0.0 0.0 0.00 0.00 0.00 48 1013.3
20260509101018 46 237 0.0 0.0 0.00 0.00 0.00 46 1013.3
20260509100518 46 237 0.0 0.0 0.00 0.00 0.00 45 1013.3
20260509100023 45 237 0.0 0.0 0.00 0.00 0.00 46 1013.4
20260509095519 45 237 0.0 0.0 0.00 0.00 0.00 47 1013.4
20260509095019 45 237 0.0 0.0 0.00 0.00 0.00 47 1013.4
20260509094519 46 237 0.0 0.0 0.00 0.00 0.00 46 1013.3
20260509094020 46 237 0.0 0.0 0.00 0.00 0.00 45 1013.3
20260509093518 46 237 0.0 0.0 0.00 0.00 0.00 45 1013.3
20260509093019 47 237 0.0 0.0 0.00 0.00 0.00 43 1013.4
20260509092518 47 237 0.0 0.0 0.00 0.00 0.00 42 1013.4
20260509092019 47 237 0.0 0.0 0.00 0.00 0.00 41 1013.4
20260509091520 46 237 0.0 0.0 0.00 0.00 0.00 44 1013.4
20260509091020 46 237 0.0 0.0 0.00 0.00 0.00 45 1013.5
20260509090519 46 237 0.0 0.0 0.00 0.00 0.00 46 1013.5
20260509090020 46 239 0.0 0.0 0.00 0.00 0.00 46 1013.5
20260509085518 46 239 0.0 0.0 0.00 0.00 0.00 47 1013.5
20260509085018 46 239 0.0 0.0 0.00 0.00 0.00 48 1013.4
20260509084520 46 239 0.0 0.0 0.00 0.00 0.00 46 1013.4
20260509084021 46 239 0.0 0.0 0.00 0.00 0.00 47 1013.3
20260509083519 46 243 0.0 0.0 0.00 0.00 0.00 48 1013.3
20260509083018 46 244 0.0 0.0 0.00 0.00 0.00 49 1013.3
20260509082518 47 244 0.0 0.0 0.00 0.00 0.00 48 1013.4
20260509082018 47 243 0.0 0.0 0.00 0.00 0.00 46 1013.4
20260509081521 46 244 0.0 0.0 0.00 0.00 0.00 51 1013.3
20260509081018 46 244 0.0 0.0 0.00 0.00 0.00 49 1013.3
20260509080518 46 244 0.0 0.0 0.00 0.00 0.00 49 1013.4
20260509080026 46 244 0.0 0.0 0.00 0.00 0.00 51 1013.4
20260509075525 46 244 0.0 0.0 0.00 0.00 0.00 50 1013.4
20260509075021 47 244 0.0 0.0 0.00 0.00 0.00 51 1013.3
20260509074519 47 244 0.0 0.0 0.00 0.00 0.00 50 1013.4
20260509074020 47 244 0.0 0.0 0.00 0.00 0.00 50 1013.2
20260509073518 48 244 0.0 0.0 0.00 0.00 0.00 49 1013.3
20260509073019 48 244 0.0 0.0 0.00 0.00 0.00 49 1013.3
20260509072519 47 244 0.0 0.0 0.00 0.00 0.00 48 1013.3
20260509072020 47 244 0.0 0.0 0.00 0.00 0.00 50 1013.4
20260509071519 48 244 0.0 0.0 0.00 0.00 0.00 49 1013.5
20260509071021 48 244 0.0 0.0 0.00 0.00 0.00 48 1013.5
20260509070520 49 244 0.0 0.0 0.00 0.00 0.00 46 1013.6
20260509070019 49 244 0.0 0.0 0.00 0.00 0.00 44 1013.5
20260509065518 48 244 0.0 0.0 0.00 0.00 0.00 46 1013.6
20260509065019 48 244 0.0 0.0 0.00 0.00 0.00 49 1013.6
20260509064519 49 244 0.0 0.0 0.00 0.00 0.00 45 1013.6
20260509064021 49 248 0.0 0.0 0.00 0.00 0.00 46 1013.6
20260509063522 48 248 0.0 0.0 0.00 0.00 0.00 47 1013.7
20260509063018 48 248 0.0 0.0 0.00 0.00 0.00 50 1013.7
20260509062523 48 248 0.0 0.0 0.00 0.00 0.00 52 1013.8
20260509062023 48 248 0.0 0.0 0.00 0.00 0.00 52 1013.7
20260509061522 49 248 0.0 0.0 0.00 0.00 0.00 47 1013.6
20260509061019 49 248 0.0 0.0 0.00 0.00 0.00 47 1013.6
20260509060519 49 249 0.0 0.0 0.00 0.00 0.00 49 1013.6
20260509060019 49 249 0.0 0.0 0.00 0.00 0.00 51 1013.7
20260509055519 49 249 0.0 0.0 0.00 0.00 0.00 49 1013.6
20260509055019 49 249 0.0 0.0 0.00 0.00 0.00 50 1013.6
20260509054519 50 249 0.0 0.0 0.00 0.00 0.00 48 1013.6
20260509054020 50 249 0.0 0.0 0.00 0.00 0.00 48 1013.6
20260509053520 50 249 0.0 0.0 0.00 0.00 0.00 50 1013.6
20260509053019 51 249 0.0 0.0 0.00 0.00 0.00 50 1013.5
20260509052520 51 249 0.0 0.0 0.00 0.00 0.00 49 1013.5
20260509052020 51 249 0.0 0.0 0.00 0.00 0.00 50 1013.6
20260509051521 51 249 0.0 0.0 0.00 0.00 0.00 50 1013.5
20260509051019 51 249 0.0 0.0 0.00 0.00 0.00 50 1013.4
20260509050519 52 249 0.0 0.0 0.00 0.00 0.00 49 1013.4
20260509050021 52 249 0.0 0.0 0.00 0.00 0.00 49 1013.3
20260509045522 54 249 0.0 0.0 0.00 0.00 0.00 46 1013.3
20260509045121 54 249 0.0 0.0 0.00 0.00 0.00 44 1013.2
20260509044519 55 249 0.0 0.0 0.00 0.00 0.00 44 1013.2
20260509044020 55 249 0.0 0.0 0.00 0.00 0.00 44 1013.1
20260509043518 55 249 0.0 0.0 0.00 0.00 0.00 43 1013.1
20260509043019 56 249 0.0 0.0 0.00 0.00 0.00 42 1013.1
20260509042520 56 249 0.0 0.0 0.00 0.00 0.00 44 1013.1
20260509042019 56 252 0.0 0.0 0.00 0.00 0.00 46 1012.9
20260509041531 56 252 0.0 0.0 0.00 0.00 0.00 45 1012.9
20260509041020 56 253 0.0 0.0 0.00 0.00 0.00 45 1012.8
20260509040521 56 253 0.0 0.0 0.00 0.00 0.00 44 1012.9
20260509040019 57 254 0.0 0.0 0.00 0.00 0.00 44 1012.8
20260509035521 57 256 0.0 0.0 0.00 0.00 0.00 43 1012.9
20260509035019 58 257 0.0 0.0 0.00 0.00 0.00 41 1012.7
20260509034519 58 257 0.0 0.0 0.00 0.00 0.00 44 1012.8
20260509034020 59 257 0.0 0.0 0.00 0.00 0.00 42 1012.7
20260509033520 60 257 0.0 0.0 0.00 0.00 0.00 42 1012.7
20260509033019 61 258 0.0 0.0 0.00 0.00 0.00 41 1012.6